Location: Wien
(48.2082°N, 16.3738°E)
Time: 09:12:29
(UTC+01:00)

A-11 Canister half - Visible Passes

Search period start: 25 February 2024 00:00
Search period end: 06 March 2024 00:00
Orbit: 1512 x 1687 km, 47.2° (Epoch: 24 February)

Date Brightness Start Highest point End Pass type
(mag) Time Alt. Az. Time Alt. Az. Time Alt. Az.
25 Feb 10.2 01:41:43 32° E 01:41:43 32° E 01:46:57 10° ENE visible
25 Feb 9.0 03:39:54 61° WSW 03:42:03 80° SSE 03:51:55 10° E visible
25 Feb 9.2 05:38:05 14° W 05:47:06 81° SSW 05:56:48 10° ESE visible
26 Feb 10.4 01:19:51 26° E 01:19:51 26° E 01:23:56 10° ENE visible
26 Feb 8.9 03:18:01 73° SW 03:19:02 79° SSE 03:28:56 10° E visible
26 Feb 9.1 05:16:11 19° W 05:24:06 82° S 05:33:50 10° ESE visible
27 Feb 10.7 00:57:57 21° E 00:57:57 21° E 01:00:56 10° ENE visible
27 Feb 9.0 02:56:07 78° SSE 02:56:07 78° SSE 03:05:58 10° E visible
27 Feb 9.1 04:54:18 24° W 05:01:06 83° S 05:10:53 10° ESE visible
28 Feb 10.9 00:36:02 17° E 00:36:02 17° E 00:37:54 10° ENE visible
28 Feb 9.1 02:34:12 69° ESE 02:34:12 69° ESE 02:42:58 10° E visible
28 Feb 9.1 04:32:23 31° W 04:38:06 84° S 04:47:54 10° ESE visible
29 Feb 11.0 00:14:07 13° ENE 00:14:07 13° ENE 00:14:52 10° ENE visible
29 Feb 9.4 02:12:18 58° E 02:12:18 58° E 02:19:59 10° E visible
29 Feb 9.0 04:10:28 39° W 04:15:05 85° S 04:24:56 10° E visible
01 Mar 9.7 01:50:22 48° E 01:50:22 48° E 01:57:00 10° E visible
01 Mar 9.0 03:48:33 48° W 03:52:04 85° S 04:01:57 10° E visible
01 Mar 9.3 05:47:01 10° WNW 05:56:48 59° SSW 06:06:13 10° SE visible
02 Mar 10.0 01:28:28 39° E 01:28:28 39° E 01:34:00 10° ENE visible
02 Mar 9.0 03:26:39 59° W 03:29:03 85° S 03:38:58 10° E visible
02 Mar 9.2 05:24:49 13° WNW 05:33:50 61° SSW 05:43:20 10° SE visible
03 Mar 10.2 01:06:34 31° E 01:06:34 31° E 01:11:01 10° ENE visible
03 Mar 8.9 03:04:44 72° WSW 03:06:02 86° S 03:16:00 10° E visible
03 Mar 9.2 05:02:55 18° W 05:10:52 63° SSW 05:20:26 10° SE visible
04 Mar 10.5 00:44:41 24° E 00:44:41 24° E 00:48:01 10° ENE visible
04 Mar 8.9 02:42:52 85° SSW 02:43:00 86° S 02:53:00 10° E visible
04 Mar 9.1 04:41:02 23° W 04:47:54 65° SSW 04:57:31 10° SE visible
05 Mar 10.7 00:22:49 19° E 00:22:49 19° E 00:25:01 10° ENE visible
05 Mar 9.0 02:21:00 76° ESE 02:21:00 76° ESE 02:30:01 10° E visible
05 Mar 9.1 04:19:11 29° W 04:24:55 67° SSW 04:34:37 10° SE visible
